Jefferson, NC

9:35 PM EDT on September 22, 2019 (GMT -0400)
Ashe County

Weather History for KGEV - May, 2019

Change the Weather History Date:

Tuesday, May 7, 2019

  Actual Average Record
Temperature  
Mean Temperature 58 °F -  
Max Temperature 67 °F 69 °F 82 °F (1986)
Min Temperature 48 °F 44 °F 27 °F (1968)
Degree Days  
Heating Degree Days 8    
Growing Degree Days 8 (Base 50)    
Moisture  
Dew Point 53 °F    
Average Humidity 80    
Maximum Humidity 95    
Minimum Humidity 60    
Precipitation  
Precipitation 0.17 in - - ()
Sea Level Pressure  
Sea Level Pressure 30.21 in    
Wind  
Wind Speed 1 mph (SSE)    
Max Wind Speed 8 mph    
Max Gust Speed -    
Visibility 10 miles    
Events Rain    
Averages and records for this station are not official NWS values.
T = Trace of Precipitation, MM = Missing Value Source: NWS Daily Summary

Daily Weather History Graph

Daily Weather History Graph

Search for Another Location

Airport or City:

Astronomy

May. 07, 2019 Rise Set
Actual Time 6:26 AM EDT 8:18 PM EDT
Civil Twilight 5:58 AM EDT 8:46 PM EDT
Nautical Twilight 5:24 AM EDT 9:20 PM EDT
Astronomical Twilight 4:47 AM EDT 9:57 PM EDT
Moon 8:33 AM EDT (5/7) 11:15 PM EDT (5/7)
Length of Visible Light 14h 48m
Length of Day
13h 52m
Waxing Crescent, 8% of the Moon is Illuminated
May 7
Waxing Crescent
May 11
First Quarter
May 18
Full
May 26
Last Quarter
Jun 3
New

Hourly Weather History & Observations

Time (EDT) Temp. Dew Point Humidity Pressure Visibility Wind Dir Wind Speed Gust Speed Precip Events Conditions
12:45 AM 57.2 °F 44.4 °F 62% 30.18 in 10.0 mi Calm Calm - N/A   Clear
1:05 AM 56.3 °F 43.2 °F 61% 30.19 in 10.0 mi Calm Calm - N/A   Scattered Clouds
1:25 AM 55.8 °F 42.3 °F 60% 30.19 in 10.0 mi Calm Calm - N/A   Scattered Clouds
1:45 AM 54.0 °F 44.1 °F 69% 30.18 in 10.0 mi Calm Calm - N/A   Scattered Clouds
2:05 AM 52.9 °F 43.0 °F 69% 30.18 in 10.0 mi NNW 3.5 mph - N/A   Clear
2:25 AM 54.1 °F 42.6 °F 65% 30.18 in 10.0 mi Calm Calm - N/A   Scattered Clouds
2:45 AM 53.1 °F 44.4 °F 72% 30.18 in 10.0 mi Calm Calm - N/A   Scattered Clouds
3:05 AM 52.9 °F 45.5 °F 76% 30.18 in 10.0 mi Calm Calm - N/A   Clear
3:25 AM 52.3 °F 45.3 °F 77% 30.17 in 10.0 mi Calm Calm - N/A   Scattered Clouds
3:45 AM 53.2 °F 45.7 °F 76% 30.17 in 10.0 mi Calm Calm - N/A   Scattered Clouds
4:05 AM 52.0 °F 45.9 °F 80% 30.18 in 10.0 mi Calm Calm - N/A   Clear
4:25 AM 52.2 °F 46.6 °F 81% 30.18 in 10.0 mi Calm Calm - N/A   Scattered Clouds
4:45 AM 55.8 °F 49.5 °F 79% 30.18 in 10.0 mi Calm Calm - N/A   Clear
5:05 AM 55.6 °F 49.8 °F 81% 30.18 in 10.0 mi Calm Calm - N/A   Clear
5:25 AM 53.4 °F 49.5 °F 86% 30.17 in 10.0 mi Calm Calm - N/A   Clear
5:45 AM 51.8 °F 46.9 °F 83% 30.17 in 10.0 mi Calm Calm - N/A   Clear
6:05 AM 49.6 °F 47.1 °F 91% 30.17 in 10.0 mi Calm Calm - N/A   Scattered Clouds
6:25 AM 48.4 °F 46.8 °F 94% 30.18 in 10.0 mi Calm Calm - N/A   Scattered Clouds
6:45 AM 48.4 °F 46.9 °F 95% 30.19 in 10.0 mi Calm Calm - N/A   Scattered Clouds
7:05 AM 54.7 °F 50.9 °F 87% 30.20 in 10.0 mi Calm Calm - N/A   Mostly Cloudy
7:25 AM 55.4 °F 50.9 °F 85% 30.21 in 10.0 mi Calm Calm - N/A   Scattered Clouds
7:45 AM 56.3 °F 51.3 °F 83% 30.22 in 10.0 mi Calm Calm - N/A   Clear
8:05 AM 57.9 °F 52.9 °F 83% 30.23 in 10.0 mi Calm Calm - N/A   Clear
8:25 AM 54.1 °F 50.4 °F 87% 30.22 in 10.0 mi Calm Calm - N/A   Clear
8:45 AM 56.7 °F 52.2 °F 85% 30.23 in 10.0 mi Calm Calm - N/A   Clear
9:05 AM 57.2 °F 52.9 °F 85% 30.24 in 10.0 mi Calm Calm - N/A   Scattered Clouds
9:25 AM 59.0 °F 53.8 °F 83% 30.25 in 10.0 mi South 3.5 mph - N/A   Mostly Cloudy
9:45 AM 59.0 °F 53.6 °F 82% 30.25 in 10.0 mi Calm Calm - N/A   Overcast
10:25 AM 62.6 °F 55.6 °F 78% 30.25 in 10.0 mi South 4.6 mph - N/A   Scattered Clouds
10:45 AM 65.3 °F 55.2 °F 70% 30.25 in 10.0 mi South 5.8 mph - N/A   Scattered Clouds
11:05 AM 66.4 °F 55.0 °F 67% 30.25 in 10.0 mi SSE 4.6 mph - N/A   Scattered Clouds
11:25 AM 66.4 °F 54.5 °F 66% 30.25 in 10.0 mi SSE 4.6 mph - N/A   Mostly Cloudy
11:45 AM 66.6 °F 53.6 °F 63% 30.24 in 10.0 mi South 6.9 mph - N/A   Overcast
12:25 PM 64.4 °F 55.4 °F 73% 30.25 in 10.0 mi Calm Calm - N/A Rain Light Rain
12:45 PM 65.1 °F 56.7 °F 74% 30.24 in 10.0 mi SSE 4.6 mph - N/A   Overcast
1:05 PM 62.2 °F 57.6 °F 85% 30.25 in 1.5 mi WSW 5.8 mph - 0.12 in Rain Heavy Rain
1:25 PM 60.3 °F 58.8 °F 95% 30.24 in 5.0 mi SSE 5.8 mph - 0.17 in Rain Light Rain
1:45 PM 62.2 °F 60.4 °F 94% 30.24 in 10.0 mi SSE 3.5 mph - 0.17 in   Overcast
2:05 PM 64.0 °F 60.6 °F 89% 30.23 in 10.0 mi SSE 5.8 mph - N/A   Scattered Clouds
2:25 PM 65.5 °F 60.4 °F 84% 30.23 in 10.0 mi SE 4.6 mph - N/A   Scattered Clouds
3:05 PM 66.6 °F 59.5 °F 78% 30.21 in 10.0 mi SSE 4.6 mph - N/A   Mostly Cloudy
3:25 PM 67.6 °F 57.7 °F 71% 30.20 in 10.0 mi South 3.5 mph - N/A   Scattered Clouds
3:45 PM 66.9 °F 55.9 °F 68% 30.20 in 10.0 mi South 6.9 mph - N/A   Scattered Clouds
4:05 PM 66.7 °F 57.2 °F 71% 30.19 in 10.0 mi South 6.9 mph - N/A   Mostly Cloudy
4:25 PM 66.9 °F 57.4 °F 71% 30.19 in 10.0 mi South 8.1 mph - N/A   Mostly Cloudy
4:45 PM 66.6 °F 58.5 °F 75% 30.18 in 10.0 mi South 6.9 mph - N/A   Mostly Cloudy
5:05 PM 65.5 °F 57.9 °F 77% 30.18 in 10.0 mi South 5.8 mph - N/A   Mostly Cloudy
5:25 PM 65.3 °F 57.9 °F 77% 30.19 in 10.0 mi South 8.1 mph - N/A   Mostly Cloudy
5:45 PM 65.3 °F 56.5 °F 73% 30.18 in 10.0 mi South 6.9 mph - N/A   Mostly Cloudy
6:05 PM 65.7 °F 57.4 °F 75% 30.19 in 10.0 mi Calm Calm - N/A   Scattered Clouds
6:25 PM 65.3 °F 57.6 °F 76% 30.20 in 10.0 mi SSE 4.6 mph - N/A   Clear
6:45 PM 64.2 °F 58.3 °F 81% 30.20 in 10.0 mi SE 3.5 mph - N/A   Clear
7:05 PM 64.0 °F 57.2 °F 78% 30.20 in 10.0 mi South 3.5 mph - N/A   Mostly Cloudy
7:25 PM 63.5 °F 56.3 °F 77% 30.20 in 10.0 mi SSE 3.5 mph - N/A   Overcast
7:45 PM 63.0 °F 57.4 °F 82% 30.19 in 10.0 mi SE 3.5 mph - N/A   Mostly Cloudy
8:05 PM 62.1 °F 56.8 °F 83% 30.19 in 10.0 mi Calm Calm - N/A   Mostly Cloudy
8:25 PM 61.5 °F 56.7 °F 84% 30.20 in 10.0 mi Calm Calm - N/A   Overcast
8:45 PM 61.3 °F 57.4 °F 87% 30.20 in 4.0 mi Calm Calm - N/A   Overcast
9:05 PM 60.1 °F 57.6 °F 91% 30.21 in 7.0 mi Calm Calm - N/A   Overcast
9:25 PM 59.9 °F 57.7 °F 93% 30.21 in 10.0 mi Calm Calm - N/A   Scattered Clouds
9:45 PM 60.1 °F 57.6 °F 91% 30.22 in 10.0 mi Calm Calm - N/A   Mostly Cloudy
10:05 PM 59.9 °F 57.6 °F 92% 30.23 in 10.0 mi Calm Calm - N/A   Overcast
10:25 PM 60.1 °F 57.7 °F 92% 30.23 in 10.0 mi Calm Calm - N/A   Scattered Clouds
10:45 PM 59.5 °F 57.2 °F 92% 30.23 in 10.0 mi Calm Calm - N/A   Clear
11:05 PM 59.9 °F 57.2 °F 91% 30.23 in 10.0 mi Calm Calm - N/A   Scattered Clouds
11:25 PM 59.0 °F 57.2 °F 94% 30.23 in 10.0 mi Calm Calm - N/A   Scattered Clouds